Location: Muenchen
(48.1800°N, 11.5800°E)
Time: 20:50:47
(UTC+02:00)

Sich 1 Rocket - Visible Passes

Search period start: 30 July 2016 00:00
Search period end: 09 August 2016 00:00
Orbit: 617 x 652 km, 82.5° (Epoch: 30 July)

Date Brightness Start Highest point End Pass type
(mag) Time Alt. Az. Time Alt. Az. Time Alt. Az.
30 Jul 4.1 21:35:27 10° SSW 21:40:01 67° W 21:44:36 10° N visible
31 Jul 5.4 21:58:18 10° SW 22:02:29 35° WNW 22:06:42 10° N visible
01 Aug 6.5 22:21:48 10° WSW 22:25:07 20° WNW 22:28:28 10° NNW visible
02 Aug 7.0 22:46:45 10° WNW 22:47:55 11° WNW 22:49:04 10° NW visible
03 Aug 5.2 21:27:00 10° SW 21:31:20 41° WNW 21:35:41 10° N visible
04 Aug 6.4 21:50:18 10° WSW 21:53:55 23° WNW 21:57:33 10° NNW visible
05 Aug 6.9 22:14:36 10° W 22:16:40 13° WNW 22:18:43 10° NW visible
07 Aug 6.2 21:18:53 10° SW 21:22:44 27° WNW 21:26:36 10° NNW visible
08 Aug 6.9 21:42:48 10° W 21:45:26 15° WNW 21:48:03 10° NNW visible
